EW2142 Weather Reports


time (UTC)temp
C
wind
direction
speed
KPH
gust
KPH
rain 1hr
cm
rain 24hr
cm
rain mn
cm
humidity
%
barometer
mb
20260504224003 8 298 0.0 11.3 0.00 0.23 0.00 33 1008.1
20260504223503 8 302 0.0 11.3 0.00 0.23 0.00 33 1008.1
20260504223003 8 272 0.0 8.0 0.00 0.23 0.00 33 1008.1
20260504222503 8 277 0.0 8.0 0.00 0.23 0.00 32 1008.1
20260504222003 8 298 0.0 8.0 0.00 0.23 0.00 33 1008.2
20260504221503 8 249 0.0 8.0 0.00 0.23 0.00 33 1008.2
20260504221003 8 227 0.0 8.0 0.00 0.23 0.00 33 1008.2
20260504220502 8 299 1.6 11.3 0.00 0.23 0.00 33 1008.2
20260504220004 8 301 1.6 11.3 0.00 0.23 0.00 34 1008.2
20260504215503 8 300 1.6 8.0 0.00 0.23 0.23 34 1008.3
20260504215003 8 298 0.0 8.0 0.00 0.23 0.23 34 1008.3
20260504214524 8 287 0.0 8.0 0.00 0.23 0.23 34 1008.2
20260504214003 8 195 0.0 4.8 0.00 0.23 0.23 35 1008.3
20260504213503 8 176 0.0 4.8 0.00 0.23 0.23 36 1008.3
20260504213003 8 305 0.0 11.3 0.00 0.23 0.23 35 1008.3
20260504212503 8 305 1.6 11.3 0.00 0.23 0.23 36 1008.3
20260504212003 8 307 1.6 6.4 0.00 0.23 0.23 37 1008.3
20260504211503 8 296 1.6 8.0 0.00 0.23 0.23 38 1008.3
20260504211003 8 295 0.0 8.0 0.00 0.23 0.23 38 1008.3
20260504210523 8 256 0.0 6.4 0.00 0.23 0.23 39 1008.3
20260504210003 8 193 0.0 8.0 0.00 0.23 0.23 40 1008.2
20260504205524 8 207 0.0 8.0 0.00 0.23 0.23 40 1008.2
20260504205023 8 262 0.0 4.8 0.00 0.23 0.23 39 1008.3
20260504204503 8 251 0.0 6.4 0.00 0.23 0.23 39 1008.3
20260504204003 8 292 0.0 8.0 0.00 0.23 0.23 40 1008.3
20260504203524 8 295 1.6 8.0 0.00 0.23 0.23 41 1008.3
20260504203003 8 300 1.6 9.7 0.00 0.23 0.23 43 1008.3
20260504202503 8 296 1.6 9.7 0.00 0.23 0.23 44 1008.3
20260504202003 8 292 1.6 9.7 0.00 0.23 0.23 45 1008.3
20260504201503 9 306 1.6 9.7 0.00 0.23 0.23 47 1008.4
20260504201024 9 307 1.6 9.7 0.00 0.23 0.23 48 1008.3
20260504200503 8 311 1.6 16.1 0.00 0.23 0.23 50 1008.5
20260504200003 9 275 1.6 11.3 0.00 0.23 0.23 51 1008.4
20260504195502 8 221 1.6 9.7 0.00 0.23 0.23 53 1008.4
20260504195003 8 247 1.6 9.7 0.00 0.23 0.23 54 1008.5
20260504194503 8 281 1.6 8.0 0.00 0.23 0.23 54 1008.5
20260504194003 8 284 1.6 8.0 0.00 0.23 0.23 55 1008.5
20260504193503 8 288 1.6 6.4 0.00 0.23 0.23 55 1008.5
20260504193024 8 218 0.0 9.7 0.00 0.23 0.23 56 1008.5
20260504192524 9 254 1.6 9.7 0.00 0.23 0.23 57 1008.5
20260504192003 8 297 1.6 6.4 0.00 0.23 0.23 58 1008.5
20260504191524 9 287 1.6 6.4 0.00 0.23 0.23 58 1008.5
20260504191003 9 292 1.6 6.4 0.00 0.23 0.23 59 1008.4
20260504190524 9 300 1.6 6.4 0.00 0.23 0.23 59 1008.4
20260504190003 9 293 1.6 4.8 0.00 0.23 0.23 59 1008.3
20260504185502 9 290 1.6 4.8 0.00 0.23 0.23 60 1008.4
20260504185003 9 291 1.6 8.0 0.00 0.23 0.23 61 1008.4
20260504184503 9 282 1.6 8.0 0.00 0.23 0.23 62 1008.4
20260504184003 9 259 1.6 9.7 0.00 0.23 0.23 63 1008.3
20260504183503 9 285 1.6 14.5 0.00 0.23 0.23 64 1008.3
20260504183024 9 293 1.6 14.5 0.00 0.23 0.23 65 1008.4
20260504182503 9 285 1.6 9.7 0.00 0.23 0.23 66 1008.3
20260504182003 9 265 1.6 9.7 0.00 0.23 0.23 66 1008.4
20260504181503 10 233 1.6 9.7 0.00 0.23 0.23 67 1008.3
20260504181003 10 298 1.6 8.0 0.00 0.23 0.23 67 1008.2
20260504180503 10 296 1.6 8.0 0.00 0.23 0.23 68 1008.1
20260504180003 10 277 1.6 8.0 0.00 0.23 0.23 68 1008.1
20260504175502 11 282 1.6 9.7 0.00 0.23 0.23 68 1008.1
20260504175003 11 275 1.6 9.7 0.00 0.23 0.23 68 1008.2
20260504174503 11 283 1.6 9.7 0.00 0.23 0.23 68 1008.1
20260504174024 11 266 1.6 12.9 0.00 0.23 0.23 68 1008.2
20260504173503 11 264 1.6 12.9 0.00 0.23 0.23 68 1008.1
20260504173003 11 278 1.6 6.4 0.00 0.23 0.23 68 1008.2
20260504172503 12 297 1.6 9.7 0.00 0.23 0.23 68 1008.2
20260504172003 12 302 1.6 9.7 0.00 0.23 0.23 68 1008.2
20260504171503 12 301 1.6 6.4 0.00 0.23 0.23 68 1008.2
20260504171024 12 299 1.6 4.8 0.00 0.23 0.23 68 1008.1
20260504170503 12 295 1.6 11.3 0.00 0.23 0.23 68 1008.1
20260504151003 14 287 3.2 9.7 0.00 0.23 0.23 48 1008.2
20260504150503 14 277 3.2 9.7 0.00 0.23 0.23 46 1008.2
20260504141003 14 262 1.6 9.7 0.00 0.23 0.23 48 1007.9
20260504140503 14 249 1.6 6.4 0.00 0.23 0.23 51 1008.0
20260504130503 14 233 1.6 9.7 0.00 0.23 0.23 62 1007.7
20260504110503 13 294 1.6 11.3 0.00 0.23 0.23 64 1006.5
20260504100503 12 300 1.6 8.0 0.00 0.23 0.23 63 1006.3
20260504082003 11 299 1.6 9.7 0.03 0.23 0.23 59 1005.6
20260504081503 11 293 1.6 9.7 0.03 0.23 0.23 60 1005.6
20260504081003 11 287 1.6 6.4 0.03 0.23 0.23 57 1005.4
20260504080503 11 297 1.6 8.0 0.03 0.23 0.23 59 1005.3
20260504050503 7 0 0.0 0.0 0.00 0.23 0.23 1 1004.5
20260504050003 7 0 0.0 0.0 0.00 0.23 0.23 1 1004.5
20260504045503 7 0 0.0 0.0 0.00 0.23 0.23 1 1004.5
20260504045023 7 0 0.0 0.0 0.00 0.23 0.23 1 1004.4
20260504044503 7 0 0.0 0.0 0.00 0.23 0.23 1 1004.5
20260504044003 7 0 0.0 0.0 0.00 0.23 0.23 1 1004.4
20260504043502 7 0 0.0 0.0 0.00 0.23 0.23 1 1004.4
20260504043003 7 0 0.0 0.0 0.00 0.23 0.23 1 1004.3
20260504042524 7 136 0.0 1.6 0.00 0.23 0.23 1 1004.4
20260504042003 7 136 0.0 1.6 0.00 0.23 0.23 1 1004.5
20260504041524 7 1 0.0 1.6 0.00 0.23 0.23 1 1004.5
20260504041003 7 1 0.0 1.6 0.00 0.23 0.23 1 1004.6
20260504040503 7 0 0.0 0.0 0.00 0.23 0.23 1 1004.5
20260504040003 7 0 0.0 0.0 0.00 0.23 0.23 1 1004.7
20260504035524 7 0 0.0 0.0 0.00 0.23 0.23 1 1004.7
20260504035003 7 0 0.0 0.0 0.00 0.23 0.23 1 1004.7
20260504034502 7 0 0.0 0.0 0.00 0.23 0.23 1 1004.7
20260504034003 7 0 0.0 0.0 0.00 0.23 0.23 1 1004.7
20260504033503 7 319 0.0 1.6 0.00 0.23 0.23 1 1004.7
20260504033024 7 312 0.0 1.6 0.00 0.23 0.23 1 1004.7
20260504032524 7 284 0.0 1.6 0.00 0.23 0.23 1 1004.7
20260504032003 8 0 0.0 0.0 0.00 0.23 0.23 1 1004.7
20260504031524 8 0 0.0 0.0 0.03 0.23 0.23 1 1004.6
20260504031003 8 0 0.0 0.0 0.03 0.23 0.23 1 1004.5
20260504030503 8 0 0.0 0.0 0.03 0.23 0.23 1 1004.7
20260504030003 8 0 0.0 0.0 0.03 0.23 0.23 1 1004.7
20260504025524 8 0 0.0 0.0 0.05 0.23 0.23 1 1004.7
20260504025003 8 0 0.0 0.0 0.05 0.23 0.23 1 1004.7
20260504024502 8 0 0.0 0.0 0.05 0.23 0.23 1 1004.9
20260504024024 8 0 0.0 0.0 0.05 0.23 0.23 1 1004.9
20260504023503 8 0 0.0 0.0 0.05 0.23 0.23 1 1004.9
20260504023003 8 0 0.0 0.0 0.05 0.23 0.23 1 1005.0
20260504022503 8 0 0.0 0.0 0.05 0.23 0.23 1 1005.1
20260504022024 8 0 0.0 0.0 0.05 0.23 0.23 1 1005.1
20260504021503 8 169 0.0 1.6 0.05 0.20 0.20 1 1005.1
20260504021003 8 302 0.0 3.2 0.05 0.20 0.20 1 1005.2
20260504020503 9 304 0.0 3.2 0.05 0.20 0.20 1 1005.3
20260504020003 9 0 0.0 0.0 0.05 0.20 0.20 1 1005.3
20260504015503 9 0 0.0 0.0 0.05 0.18 0.18 1 1005.3
20260504015003 9 247 0.0 1.6 0.05 0.18 0.18 1 1005.3
20260504014503 9 246 0.0 1.6 0.05 0.18 0.18 1 1005.3
20260504014003 9 236 0.0 1.6 0.05 0.18 0.18 1 1005.2
20260504013524 9 226 0.0 1.6 0.08 0.18 0.18 1 1005.2
20260504013003 9 0 0.0 0.0 0.08 0.18 0.18 1 1005.3
20260504012503 9 0 0.0 0.0 0.10 0.18 0.18 1 1005.4
20260504012024 9 0 0.0 0.0 0.10 0.18 0.18 1 1005.4
20260504011503 9 0 0.0 0.0 0.08 0.15 0.15 1 1005.3
20260504011003 9 0 0.0 0.0 0.10 0.15 0.15 1 1005.3
20260504010524 9 0 0.0 0.0 0.10 0.15 0.15 1 1005.4
20260504010003 9 0 0.0 0.0 0.10 0.15 0.15 1 1005.4
20260504005503 9 0 0.0 0.0 0.08 0.15 0.15 1 1005.4
20260504005003 9 0 0.0 0.0 0.08 0.15 0.15 1 1005.6
20260504004503 9 0 0.0 0.0 0.05 0.13 0.13 1 1005.6
20260504004003 10 0 0.0 0.0 0.08 0.13 0.13 1 1005.6
20260504003502 10 0 0.0 0.0 0.05 0.10 0.10 1 1005.6
20260504003003 10 0 0.0 0.0 0.05 0.10 0.10 1 1005.6
20260504002503 10 0 0.0 0.0 0.05 0.08 0.08 1 1005.7
20260504002003 10 0 0.0 0.0 0.05 0.08 0.08 1 1005.7
20260504001503 10 0 0.0 0.0 0.05 0.08 0.08 1 1005.7
20260504001003 10 302 0.0 1.6 0.05 0.05 0.05 1 1005.8
20260504000503 10 302 0.0 1.6 0.05 0.05 0.05 1 1005.8
20260504000003 10 0 0.0 0.0 0.05 0.05 0.05 1 1005.8
20260503235503 10 0 0.0 0.0 0.05 0.05 0.05 1 1005.9
20260503235024 10 0 0.0 0.0 0.05 0.05 0.05 1 1005.8
20260503234503 10 137 0.0 1.6 0.05 0.05 0.05 1 1005.9
20260503234003 10 343 0.0 1.6 0.05 0.05 0.05 1 1006.0
20260503233503 10 320 0.0 1.6 0.05 0.05 0.05 1 1006.1
20260503233003 10 295 0.0 1.6 0.05 0.05 0.05 1 1006.1
20260503232503 10 294 0.0 1.6 0.05 0.05 0.05 1 1006.1
20260503232003 10 264 0.0 1.6 0.05 0.05 0.05 1 1006.2
20260503231503 10 264 0.0 1.6 0.03 0.03 0.03 1 1006.3
20260503231003 10 0 0.0 0.0 0.03 0.03 0.03 1 1006.3
20260503230503 10 0 0.0 0.0 0.03 0.03 0.03 1 1006.4
20260503230003 10 0 0.0 0.0 0.03 0.03 0.03 1 1006.4
20260503225503 10 103 0.0 1.6 0.00 0.00 0.00 1 1006.4
20260503225024 10 103 0.0 1.6 0.00 0.00 0.00 1 1006.4
20260503224502 10 103 0.0 1.6 0.00 0.00 0.00 1 1006.5